Location: Newark
(34.1333°N, 7.9667°W)
Time: 17:29:31
(UTC+00:00)

Transit 2A - Pass Details

Date: 20 June 2021
Orbit: 598 x 960 km, 66.7° (Epoch: 23 July)

Event Time Altitude Azimuth Distance (km) Brightness Sun altitude
Rises 02:24:56 0° 330° (NNW) 3,121 9.6 -26.6°
Reaches altitude 10° 02:27:11 10° 328° (NNW) 2,250 8.7 -26.4°
Enters shadow 02:31:50 64° 279° (W) 876 6.1 -25.9°
Maximum altitude 02:32:19 68° 246° (WSW) 858 - -25.9°
Drops below altitude 10° 02:37:59 10° 164° (SSE) 2,482 - -25.3°
Sets 02:40:35 0° 162° (SSE) 3,467 - -25.0°
